This is the latest recevied weather packets stored in our database for station/object EA1CZ-10. If no packets are shown the sender has not sent any weather packets the latest 10 day(s).
| Time | Temp. | Humidity | Pressure | Rain* | Wind** | Luminosity | Snow |
|---|---|---|---|---|---|---|---|
| 1788516603 | 27.22° C | 33% | 1039.6 hPa | - | - | - | - |
| 1788514803 | 27.22° C | 34% | 1039.4 hPa | - | - | - | - |
| 1788513003 | 26.11° C | 35% | 1039.4 hPa | - | - | - | - |
| 1788511203 | 25.56° C | 36% | 1039.3 hPa | - | - | - | - |
| 1788509403 | 25° C | 36% | 1039.2 hPa | - | - | - | - |
| 1788507603 | 24.44° C | 37% | 1039 hPa | - | - | - | - |
| 1788505803 | 23.89° C | 37% | 1038.7 hPa | - | - | - | - |
| 1788504002 | 23.89° C | 37% | 1038.3 hPa | - | - | - | - |
| 1788502202 | 23.33° C | 38% | 1038.2 hPa | - | - | - | - |
| 1788500402 | 22.78° C | 39% | 1038.2 hPa | - | - | - | - |
| 1788498602 | 23.33° C | 39% | 1038.2 hPa | - | - | - | - |
| 1788496802 | 22.78° C | 40% | 1038.2 hPa | - | - | - | - |
| 1788495002 | 22.78° C | 41% | 1038.3 hPa | - | - | - | - |
| 1788493201 | 22.22° C | 42% | 1038.4 hPa | - | - | - | - |
| 1788491401 | 22.22° C | 42% | 1038.5 hPa | - | - | - | - |
| 1788489601 | 22.22° C | 42% | 1038.6 hPa | - | - | - | - |
| 1788487801 | 22.22° C | 42% | 1038.7 hPa | - | - | - | - |
| 1788486001 | 22.22° C | 43% | 1039 hPa | - | - | - | - |
| 1788484201 | 22.78° C | 43% | 1039.3 hPa | - | - | - | - |
| 1788482401 | 22.78° C | 43% | 1039.3 hPa | - | - | - | - |
| 1788480601 | 22.78° C | 44% | 1039.4 hPa | - | - | - | - |
| 1788478800 | 22.78° C | 44% | 1039.5 hPa | - | - | - | - |
| 1788477000 | 22.78° C | 44% | 1039.6 hPa | - | - | - | - |
| 1788475200 | 22.22° C | 45% | 1039.7 hPa | - | - | - | - |
| 1788473425 | 21.67° C | 46% | 1039.7 hPa | - | - | - | - |
* Rain since midnight (hover to see other rain measurements)
** Current wind speed in m/s (hover to see current wind gust speed)